W4HSV Weather Reports


time (UTC)temp
F
wind
direction
speed
knots
gust
knots
rain 1hr
in
rain 24hr
in
rain mn
in
humidity
%
barometer
mb
20191015133341 67 143 0.0 3.5 0.00 0.00 0.00 72 1017.8
20191015132844 67 142 0.9 3.5 0.00 0.00 0.00 73 1017.9
20191015132327 66 235 0.0 3.5 0.00 0.00 0.00 73 1017.9
20191015131830 66 301 0.9 2.6 0.00 0.00 0.00 75 1017.9
20191015131329 65 299 0.0 2.6 0.00 0.00 0.00 77 1018.0
20191015130829 64 297 0.0 2.6 0.00 0.00 0.00 78 1017.9
20191015130330 63 297 0.0 1.7 0.00 0.00 0.00 81 1018.0
20191015125833 63 297 0.0 0.0 0.00 0.00 0.00 83 1018.0
20191015125334 63 297 0.0 0.0 0.00 0.00 0.00 84 1017.9
20191015124836 62 297 0.0 0.0 0.00 0.00 0.00 84 1017.9
20191015124337 62 297 0.0 0.0 0.00 0.00 0.00 84 1018.1
20191015123839 62 297 0.0 1.7 0.00 0.00 0.00 85 1018.2
20191015123340 62 297 0.0 1.7 0.00 0.00 0.00 86 1018.2
20191015122840 62 297 0.0 0.9 0.00 0.00 0.00 86 1018.2
20191015122335 62 297 0.0 0.0 0.00 0.00 0.00 85 1018.2
20191015121843 62 297 0.0 0.0 0.00 0.00 0.00 85 1018.3
20191015121342 62 297 0.0 0.0 0.00 0.00 0.00 85 1018.2
20191015120824 62 297 0.0 0.0 0.00 0.00 0.00 85 1018.2
20191015120324 62 297 0.0 0.0 0.00 0.00 0.00 85 1018.2
20191015115826 62 297 0.0 0.0 0.00 0.00 0.00 85 1018.1
20191015115327 62 297 0.0 0.0 0.00 0.00 0.00 85 1018.2
20191015114829 61 297 0.0 0.9 0.00 0.00 0.00 85 1018.3
20191015114328 61 297 0.0 0.9 0.00 0.00 0.00 85 1018.3
20191015113829 61 297 0.0 0.0 0.00 0.00 0.00 85 1018.4
20191015113330 61 297 0.0 0.0 0.00 0.00 0.00 85 1018.4
20191015112831 61 297 0.0 0.0 0.00 0.00 0.00 85 1018.4
20191015112332 61 297 0.0 0.0 0.00 0.00 0.00 84 1018.4
20191015111839 61 297 0.0 0.0 0.00 0.00 0.00 84 1018.3
20191015111339 61 297 0.0 0.0 0.00 0.00 0.00 85 1018.4
20191015110839 61 297 0.0 0.0 0.00 0.00 0.00 85 1018.4
20191015110340 61 297 0.0 0.0 0.00 0.00 0.00 84 1018.4
20191015105840 62 297 0.0 1.7 0.00 0.00 0.00 83 1018.3
20191015105341 62 297 0.9 1.7 0.00 0.00 0.00 82 1018.2
20191015104843 62 297 0.9 1.7 0.00 0.00 0.00 80 1018.1
20191015104342 63 297 0.0 0.0 0.00 0.00 0.00 80 1018.0
20191015103843 63 297 0.0 0.0 0.00 0.00 0.00 80 1018.0
20191015103324 63 297 0.0 1.7 0.00 0.00 0.00 80 1017.9
20191015102825 63 297 0.0 1.7 0.00 0.00 0.00 80 1018.0
20191015102327 63 297 0.0 0.0 0.00 0.00 0.00 80 1017.9
20191015101833 63 296 0.0 0.0 0.00 0.00 0.00 80 1017.9
20191015101332 63 296 0.0 0.9 0.00 0.00 0.00 81 1017.9
20191015100834 63 296 0.0 2.6 0.00 0.00 0.00 81 1018.1
20191015100334 63 296 1.7 2.6 0.00 0.00 0.00 81 1018.2
20191015095835 63 297 0.9 1.7 0.00 0.00 0.00 81 1018.2
20191015095335 63 297 0.9 1.7 0.00 0.00 0.00 81 1018.2
20191015094837 63 297 0.0 1.7 0.00 0.00 0.00 82 1018.3
20191015094336 63 297 0.0 0.0 0.00 0.00 0.00 83 1018.2
20191015093837 63 297 0.0 0.0 0.00 0.00 0.00 83 1018.2
20191015093338 63 297 0.0 0.0 0.00 0.00 0.00 84 1018.4
20191015092838 63 297 0.0 0.0 0.00 0.00 0.00 84 1018.3
20191015092339 63 297 0.0 0.0 0.00 0.00 0.00 84 1018.3
20191015091825 63 297 0.0 0.0 0.00 0.00 0.00 83 1018.3
20191015091324 63 297 0.0 0.0 0.00 0.00 0.00 83 1018.3
20191015090843 63 297 0.0 0.0 0.00 0.00 0.00 83 1018.4
20191015090335 63 297 0.0 0.0 0.00 0.00 0.00 83 1018.4
20191015085835 63 297 0.0 0.0 0.00 0.00 0.00 83 1018.5
20191015085336 62 297 0.0 0.0 0.00 0.00 0.00 83 1018.4
20191015084839 62 297 0.0 0.0 0.00 0.00 0.00 83 1018.4
20191015084337 62 297 0.0 0.0 0.00 0.00 0.00 83 1018.2
20191015083838 62 297 0.0 3.5 0.00 0.00 0.00 83 1018.1
20191015083339 62 297 0.9 3.5 0.00 0.00 0.00 83 1018.3
20191015082840 63 297 1.7 3.5 0.00 0.00 0.00 83 1018.3
20191015082339 63 253 0.0 0.0 0.00 0.00 0.00 82 1018.5
20191015081841 63 253 0.0 0.0 0.00 0.00 0.00 82 1018.7
20191015081325 63 253 0.0 1.7 0.00 0.00 0.00 82 1018.7
20191015080826 63 253 0.0 1.7 0.00 0.00 0.00 82 1018.7
20191015080326 63 253 0.0 0.0 0.00 0.00 0.00 81 1018.6
20191015075827 63 253 0.0 0.0 0.00 0.00 0.00 81 1018.7
20191015075327 63 253 0.0 0.0 0.00 0.00 0.00 80 1018.8
20191015074830 63 253 0.0 0.0 0.00 0.00 0.00 80 1018.8
20191015074330 63 253 0.0 0.0 0.00 0.00 0.00 80 1018.8
20191015073830 63 253 0.0 0.0 0.00 0.00 0.00 79 1018.7
20191015073330 63 253 0.0 0.0 0.00 0.00 0.00 79 1018.6
20191015072830 63 253 0.0 0.0 0.00 0.00 0.00 80 1018.7
20191015072331 63 253 0.0 0.0 0.00 0.00 0.00 80 1018.7
20191015071832 63 253 0.0 1.7 0.00 0.00 0.00 79 1018.6
20191015071330 63 253 0.0 2.6 0.00 0.00 0.00 79 1018.5
20191015070835 63 253 0.9 2.6 0.00 0.00 0.00 79 1018.6
20191015070335 63 253 1.7 2.6 0.00 0.00 0.00 80 1018.5
20191015065835 63 253 0.0 0.0 0.00 0.00 0.00 80 1018.7
20191015065336 62 253 0.0 0.0 0.00 0.00 0.00 80 1018.8
20191015064838 62 253 0.0 0.0 0.00 0.00 0.00 80 1018.9
20191015064336 62 253 0.0 0.0 0.00 0.00 0.00 80 1019.0
20191015063837 63 253 0.0 0.9 0.00 0.00 0.00 80 1019.0
20191015063336 63 253 0.0 2.6 0.00 0.00 0.00 79 1018.9
20191015062836 63 253 1.7 2.6 0.00 0.00 0.00 79 1018.9
20191015062336 63 253 0.9 2.6 0.00 0.00 0.00 78 1018.9
20191015061837 63 253 0.0 0.0 0.00 0.00 0.00 78 1018.6
20191015061336 63 253 0.0 0.0 0.00 0.00 0.00 77 1018.5
20191015060836 63 253 0.0 1.7 0.00 0.00 0.00 77 1018.4
20191015060341 63 253 0.0 2.6 0.00 0.00 0.00 78 1018.3
20191015055841 63 253 0.9 2.6 0.00 0.00 0.00 78 1018.3
20191015055341 63 253 0.0 0.0 0.00 0.00 0.00 78 1018.4
20191015054843 63 253 0.0 0.0 0.00 0.00 0.00 79 1018.6
20191015054324 63 253 0.0 0.0 0.00 0.00 0.00 78 1018.8
20191015053823 63 253 0.0 0.0 0.00 0.00 0.00 78 1019.3
20191015053324 63 253 0.0 0.0 0.00 0.00 0.00 78 1019.3
20191015052826 63 253 0.0 0.0 0.00 0.00 0.00 78 1019.1
20191015052327 63 253 0.0 0.0 0.00 0.00 0.00 77 1019.1
20191015051829 63 253 0.0 0.0 0.00 0.00 0.00 77 1019.3
20191015051328 63 253 0.0 0.0 0.00 0.00 0.00 77 1019.4
20191015050828 63 253 0.0 0.0 0.00 0.00 0.00 77 1019.6
20191015050333 63 253 0.0 0.0 0.00 0.00 0.00 77 1019.4
20191015045834 63 253 0.0 0.0 0.00 0.00 0.00 77 1019.3
20191015045335 63 253 0.0 0.0 0.00 0.00 0.00 77 1019.0
20191015044838 63 253 0.0 0.0 0.00 0.00 0.00 77 1019.1
20191015044338 63 253 0.0 0.0 0.00 0.00 0.00 77 1019.2
20191015043840 63 253 0.0 0.0 0.00 0.00 0.00 76 1019.1
20191015043340 63 253 0.0 1.7 0.00 0.00 0.00 76 1019.2
20191015042842 63 253 0.9 2.6 0.00 0.00 0.00 77 1019.5
20191015042341 63 253 0.9 2.6 0.00 0.00 0.00 76 1019.4
20191015041824 63 253 0.0 0.0 0.00 0.00 0.00 75 1019.1
20191015041324 63 253 0.0 0.0 0.00 0.00 0.00 74 1018.9
20191015040824 63 253 0.0 0.0 0.00 0.00 0.00 73 1018.9
20191015040329 63 253 0.0 0.0 0.00 0.00 0.00 73 1019.0
20191015035829 63 253 0.0 0.0 0.00 0.00 0.00 73 1019.1
20191015035328 63 253 0.0 0.0 0.00 0.00 0.00 74 1018.9
20191015034831 63 253 0.0 0.0 0.00 0.00 0.00 73 1019.2
20191015034331 63 253 0.0 0.0 0.00 0.00 0.00 74 1019.2
20191015033832 63 253 0.0 2.6 0.00 0.00 0.00 74 1019.2
20191015033333 63 253 1.7 2.6 0.00 0.00 0.00 75 1019.1
20191015032834 63 253 1.7 1.7 0.00 0.00 0.00 76 1019.2
20191015032336 63 253 0.0 1.7 0.00 0.00 0.00 74 1019.3
20191015031838 63 253 0.0 1.7 0.00 0.00 0.00 73 1019.5
20191015031336 63 253 0.0 0.0 0.00 0.00 0.00 72 1019.5
20191015030835 63 253 0.0 0.0 0.00 0.00 0.00 71 1019.5
20191015030336 63 253 0.0 0.0 0.00 0.00 0.00 71 1019.4
20191015025841 63 253 0.0 0.0 0.00 0.00 0.00 71 1019.3
20191015025341 63 253 0.0 1.7 0.00 0.00 0.00 71 1019.2
20191015024842 62 253 0.0 1.7 0.00 0.00 0.00 72 1019.3
20191015024323 62 253 0.9 1.7 0.00 0.00 0.00 72 1019.2
20191015023824 62 253 0.0 0.0 0.00 0.00 0.00 72 1019.3
20191015023323 62 253 0.0 1.7 0.00 0.00 0.00 72 1019.3
20191015022824 62 253 0.0 2.6 0.00 0.00 0.00 73 1019.5
20191015022324 62 253 0.9 1.7 0.00 0.00 0.00 73 1019.4
20191015021827 62 253 1.7 1.7 0.00 0.00 0.00 74 1019.5
20191015021328 62 253 0.0 1.7 0.00 0.00 0.00 74 1019.5
20191015020828 62 253 0.0 0.0 0.00 0.00 0.00 74 1019.4
20191015020329 62 253 0.0 0.0 0.00 0.00 0.00 74 1019.4
20191015015833 62 253 0.0 0.0 0.00 0.00 0.00 73 1019.6
20191015015333 62 253 0.0 0.0 0.00 0.00 0.00 73 1019.6
20191015014835 62 253 0.0 0.0 0.00 0.00 0.00 72 1019.5
20191015014335 63 253 0.0 0.0 0.00 0.00 0.00 72 1019.4
20191015013836 63 253 0.0 0.0 0.00 0.00 0.00 71 1019.3
20191015013336 63 253 0.0 0.0 0.00 0.00 0.00 72 1019.2
20191015012838 63 253 0.0 0.0 0.00 0.00 0.00 72 1019.0
20191015012338 63 253 0.0 0.0 0.00 0.00 0.00 71 1018.9
20191015011838 63 253 0.0 0.0 0.00 0.00 0.00 71 1019.0
20191015011339 63 253 0.0 1.7 0.00 0.00 0.00 70 1019.1
20191015010839 64 253 0.0 1.7 0.00 0.00 0.00 69 1019.1
20191015010340 64 253 0.0 0.0 0.00 0.00 0.00 68 1019.0
20191015005824 64 253 0.0 0.0 0.00 0.00 0.00 67 1019.1
20191015005323 64 253 0.0 0.0 0.00 0.00 0.00 68 1019.2
20191015004845 64 253 0.0 0.0 0.00 0.00 0.00 68 1019.2
20191015004343 65 253 0.0 2.6 0.00 0.00 0.00 67 1019.2
20191015003823 65 253 0.9 2.6 0.00 0.00 0.00 67 1019.1
20191015003324 66 253 0.0 0.0 0.00 0.00 0.00 66 1019.1
20191015002825 66 253 0.0 0.0 0.00 0.00 0.00 64 1019.0
20191015002325 66 253 0.0 0.0 0.00 0.00 0.00 63 1018.8
20191015001828 66 253 0.0 0.0 0.00 0.00 0.00 63 1018.7
20191015001327 66 253 0.0 0.0 0.00 0.00 0.00 63 1018.9
20191015000827 67 253 0.0 1.7 0.00 0.00 0.00 62 1018.9
20191015000329 67 253 0.0 2.6 0.00 0.00 0.00 61 1018.9
20191014235830 67 253 0.9 2.6 0.00 0.00 0.00 61 1018.8
20191014235334 67 253 1.7 2.6 0.00 0.00 0.00 60 1018.9
20191014234835 68 253 0.0 0.0 0.00 0.00 0.00 60 1018.6
20191014234334 68 253 0.0 0.0 0.00 0.00 0.00 59 1018.7
20191014233836 68 253 0.0 1.7 0.00 0.00 0.00 60 1018.8
20191014233336 68 253 0.0 1.7 0.00 0.00 0.00 60 1018.8
20191014232835 68 253 0.0 3.5 0.00 0.00 0.00 59 1018.8
20191014232337 69 253 0.9 2.6 0.00 0.00 0.00 59 1018.9
20191014231840 69 253 0.9 3.5 0.00 0.00 0.00 58 1018.8
20191014231340 69 253 1.7 3.5 0.00 0.00 0.00 57 1018.7
20191014230841 69 253 1.7 2.6 0.00 0.00 0.00 56 1018.7
20191014230343 70 253 0.0 4.3 0.00 0.00 0.00 56 1018.5
20191014225824 70 253 2.6 6.1 0.00 0.00 0.00 56 1018.5
20191014225328 70 253 3.5 6.1 0.00 0.00 0.00 55 1018.7
20191014224828 70 251 2.6 6.1 0.00 0.00 0.00 55 1018.7
20191014224327 70 274 2.6 5.2 0.00 0.00 0.00 54 1018.6
20191014223828 70 280 1.7 4.3 0.00 0.00 0.00 53 1018.6
20191014223327 71 233 2.6 4.3 0.00 0.00 0.00 52 1018.6
20191014222828 71 232 3.5 4.3 0.00 0.00 0.00 52 1018.6
20191014222329 71 229 1.7 4.3 0.00 0.00 0.00 51 1018.4
20191014221830 71 230 1.7 5.2 0.00 0.00 0.00 51 1018.7
20191014221330 71 233 2.6 5.2 0.00 0.00 0.00 50 1018.7
20191014220831 72 216 2.6 5.2 0.00 0.00 0.00 49 1018.6
20191014220333 72 249 1.7 7.0 0.00 0.00 0.00 49 1018.6
20191014215834 72 235 3.5 7.0 0.00 0.00 0.00 48 1018.5
20191014215335 73 237 2.6 7.0 0.00 0.00 0.00 47 1018.4
20191014214840 73 258 2.6 6.1 0.00 0.00 0.00 45 1018.5
20191014214340 73 258 2.6 5.2 0.00 0.00 0.00 45 1018.5
20191014213840 73 258 0.9 5.2 0.00 0.00 0.00 44 1018.5
20191014213342 73 233 1.7 4.3 0.00 0.00 0.00 44 1018.5
20191014212823 73 233 0.9 7.0 0.00 0.00 0.00 44 1018.4
20191014212324 73 245 2.6 7.0 0.00 0.00 0.00 44 1018.4
20191014211826 74 241 2.6 4.3 0.00 0.00 0.00 44 1018.3
20191014211325 73 241 2.6 4.3 0.00 0.00 0.00 44 1018.3
20191014210826 73 243 0.0 6.1 0.00 0.00 0.00 43 1018.4
20191014210327 73 243 2.6 6.1 0.00 0.00 0.00 44 1018.3
20191014205827 73 243 1.7 7.0 0.00 0.00 0.00 44 1018.3
20191014205326 73 244 3.5 7.0 0.00 0.00 0.00 43 1018.5
20191014204831 73 243 2.6 7.0 0.00 0.00 0.00 42 1018.7
20191014204330 73 250 1.7 7.0 0.00 0.00 0.00 43 1018.8
20191014203830 74 242 1.7 4.3 0.00 0.00 0.00 42 1018.8
20191014203330 74 287 1.7 4.3 0.00 0.00 0.00 42 1018.5
20191014202830 74 287 0.9 6.1 0.00 0.00 0.00 42 1018.4
20191014202331 74 301 2.6 4.3 0.00 0.00 0.00 41 1018.6
20191014201832 74 303 2.6 4.3 0.00 0.00 0.00 39 1018.5
20191014201331 74 268 1.7 5.2 0.00 0.00 0.00 40 1018.3
20191014200832 73 226 0.0 7.0 0.00 0.00 0.00 40 1018.3
20191014200333 73 226 0.0 7.0 0.00 0.00 0.00 39 1018.6
20191014195834 74 261 2.6 5.2 0.00 0.00 0.00 38 1018.7
20191014195333 74 262 0.9 3.5 0.00 0.00 0.00 38 1018.7
20191014194836 74 261 1.7 4.3 0.00 0.00 0.00 38 1018.7
20191014194339 74 182 2.6 4.3 0.00 0.00 0.00 37 1018.6
20191014193840 74 246 0.0 4.3 0.00 0.00 0.00 38 1018.7
20191014193341 73 246 1.7 6.1 0.00 0.00 0.00 39 1018.8
20191014192841 73 231 1.7 6.1 0.00 0.00 0.00 36 1018.6
20191014192342 73 233 2.6 5.2 0.00 0.00 0.00 36 1018.7
20191014191824 73 235 1.7 6.1 0.00 0.00 0.00 34 1018.8
20191014191324 74 243 0.9 5.2 0.00 0.00 0.00 34 1018.9
20191014190825 74 235 2.6 6.1 0.00 0.00 0.00 35 1018.8
20191014190326 74 202 3.5 7.0 0.00 0.00 0.00 33 1018.7
20191014185826 74 213 1.7 4.3 0.00 0.00 0.00 35 1018.8
20191014185328 74 180 0.9 7.0 0.00 0.00 0.00 34 1018.8
20191014184830 73 169 1.7 7.0 0.00 0.00 0.00 34 1018.8
20191014184334 73 306 1.7 3.5 0.00 0.00 0.00 33 1018.9
20191014183834 73 306 0.9 4.3 0.00 0.00 0.00 34 1019.1
20191014183334 73 308 1.7 4.3 0.00 0.00 0.00 33 1019.1
20191014182835 74 156 0.0 7.0 0.00 0.00 0.00 32 1019.2
20191014182334 73 156 2.6 7.0 0.00 0.00 0.00 36 1019.4
20191014181837 73 187 3.5 5.2 0.00 0.00 0.00 34 1019.4
20191014181338 73 27 0.9 2.6 0.00 0.00 0.00 35 1019.4
20191014180837 73 86 0.9 2.6 0.00 0.00 0.00 34 1019.5
20191014180336 73 86 0.9 5.2 0.00 0.00 0.00 38 1019.7
20191014175836 72 86 0.9 5.2 0.00 0.00 0.00 40 1019.8
20191014175337 71 164 0.9 6.1 0.00 0.00 0.00 38 1019.9
20191014174839 71 166 0.9 6.1 0.00 0.00 0.00 40 1020.0
20191014174337 72 164 3.5 7.0 0.00 0.00 0.00 36 1020.0
20191014173842 72 161 4.3 7.8 0.00 0.00 0.00 38 1020.0
20191014173323 72 48 0.0 4.3 0.00 0.00 0.00 40 1020.0
20191014172824 72 48 2.6 5.2 0.00 0.00 0.00 40 1020.2
20191014172324 71 49 2.6 5.2 0.00 0.00 0.00 42 1020.1
20191014171825 70 166 2.6 5.2 0.00 0.00 0.00 39 1020.2
20191014171325 71 87 0.9 7.0 0.00 0.00 0.00 42 1020.2
20191014170826 70 77 1.7 7.0 0.00 0.00 0.00 36 1020.3
20191014170328 70 29 2.6 6.1 0.00 0.00 0.00 41 1020.3
20191014165829 70 39 0.9 6.1 0.00 0.00 0.00 41 1020.4
20191014165327 70 33 2.6 7.0 0.00 0.00 0.00 44 1020.5
20191014164830 69 55 2.6 6.1 0.00 0.00 0.00 44 1020.5
20191014164331 69 85 5.2 7.0 0.00 0.00 0.00 45 1020.5
20191014163834 68 26 2.6 7.0 0.00 0.00 0.00 48 1020.6
20191014163334 68 77 1.7 7.8 0.00 0.00 0.00 48 1020.6
20191014162835 68 28 2.6 4.3 0.00 0.00 0.00 48 1020.8
20191014162336 69 46 1.7 6.1 0.00 0.00 0.00 47 1020.9
20191014161836 68 42 3.5 7.8 0.00 0.00 0.00 50 1020.9
20191014161335 67 56 2.6 7.8 0.00 0.00 0.00 50 1021.0
20191014160836 68 26 4.3 7.0 0.00 0.00 0.00 50 1021.1
20191014160335 68 54 0.9 7.0 0.00 0.00 0.00 52 1021.0
20191014155837 67 45 5.2 7.8 0.00 0.00 0.00 52 1021.2
20191014155338 67 70 5.2 7.8 0.00 0.00 0.00 53 1021.4
20191014154840 66 51 3.5 5.2 0.00 0.00 0.00 55 1021.4
20191014154341 66 47 2.6 7.8 0.00 0.00 0.00 56 1021.3
20191014153826 65 51 1.7 7.8 0.00 0.00 0.00 57 1021.3
20191014153324 65 88 1.7 8.7 0.00 0.00 0.00 57 1021.3
20191014152825 65 98 6.1 8.7 0.00 0.00 0.00 58 1021.3
20191014152326 64 129 2.6 5.2 0.00 0.00 0.00 61 1021.3
20191014151826 64 87 2.6 5.2 0.00 0.00 0.00 60 1021.4
20191014151326 64 76 2.6 5.2 0.00 0.00 0.00 63 1021.3
20191014150827 63 63 0.9 5.2 0.00 0.00 0.00 67 1021.3
20191014150327 62 63 3.5 5.2 0.00 0.00 0.00 68 1021.4
20191014145827 62 64 1.7 4.3 0.00 0.00 0.00 69 1021.4
20191014145329 61 100 1.7 6.1 0.00 0.00 0.00 70 1021.4
20191014144829 61 94 2.6 5.2 0.00 0.00 0.00 73 1021.4
20191014144328 60 152 1.7 5.2 0.00 0.00 0.00 74 1021.3
20191014143830 59 150 0.9 4.3 0.00 0.00 0.00 77 1021.3
20191014143335 58 151 1.7 4.3 0.00 0.00 0.00 78 1021.4
20191014142836 58 150 1.7 4.3 0.00 0.00 0.00 81 1021.5
20191014142335 57 149 0.0 4.3 0.00 0.00 0.00 85 1021.5
20191014141837 56 130 0.0 3.5 0.00 0.00 0.00 85 1021.4
20191014141336 56 130 1.7 3.5 0.00 0.00 0.00 86 1021.5
20191014140838 56 130 1.7 3.5 0.00 0.00 0.00 88 1021.4
20191014140339 55 128 0.9 2.6 0.00 0.00 0.00 91 1021.5
20191014135841 54 127 0.9 2.6 0.00 0.00 0.00 92 1021.4
20191014135341 53 17 0.9 3.5 0.00 0.00 0.00 95 1021.4
20191014134841 52 18 0.9 2.6 0.00 0.00 0.00 96 1021.4
20191014134339 51 17 0.0 0.0 0.00 0.00 0.00 96 1021.2
20191014133841 50 17 0.0 1.7 0.00 0.00 0.00 96 1021.2